Change the Weather History Date:

Friday, March 30, 2012

  Actual Average Record
Temperature  
Mean Temperature 45 °F 43 °F  
Max Temperature 52 °F 54 °F 82 °F (1910)
Min Temperature 38 °F 32 °F 6 °F (1954)
Degree Days  
Heating Degree Days 20 22  
Month to date heating degree days 400 842  
Since 1 July heating degree days 4774 5844  
Cooling Degree Days 0 0  
Month to date cooling degree days 36 0  
Year to date cooling degree days 36 0  
Moisture  
Dew Point 40 °F    
Average Humidity 79    
Maximum Humidity 86    
Minimum Humidity 71    
Precipitation  
Precipitation 0.19 in 0.09 in 0.99 in (1960)
Month to date precipitation 2.09 2.22  
Year to date precipitation 4.63 5.00  
Snow  
Snow 0.00 in 0.10 in 3.50 in (1928)
Month to date snowfall 3.0 4.7  
Since 1 July snowfall 24.3 35.7  
Snow Depth 0.00 in    
Sea Level Pressure  
Sea Level Pressure 29.83 in    
Wind  
Wind Speed 9 mph (NE)    
Max Wind Speed 21 mph    
Max Gust Speed 26 mph    
Visibility 7 miles    
Events Rain , Thunderstorm    
T = Trace of Precipitation, MM = Missing Value Source: NWS Daily Summary

Daily Weather History Graph

Daily Weather History Graph

Search for Another Location

Airport or City:

Trip Planner

Search our weather history database for the weather conditions in past years. The results will help you decide how hot, cold, wet, or windy it might be!

Date:

Astronomy

Mar. 30, 2012 Rise Set
Actual Time 6:41 AM CDT 7:20 PM CDT
Civil Twilight 6:13 AM CDT 7:48 PM CDT
Nautical Twilight 5:39 AM CDT 8:22 PM CDT
Astronomical Twilight 5:05 AM CDT 8:56 PM CDT
Moon 11:42 AM CDT (3/30) 2:01 AM CDT (3/30)
Length of Visible Light 13h 35m
Length of Day
12h 38m
Waxing Crescent, 49% of the Moon is Illuminated
Mar 30
Waxing Crescent
Mar 30
First Quarter
Apr 6
Full
Apr 13
Last Quarter
Apr 21
New

Hourly Weather History & Observations

Time (CDT) Temp. Windchill Dew Point Humidity Pressure Visibility Wind Dir Wind Speed Gust Speed Precip Events Conditions
12:54 AM 37.9 °F 31.5 °F 33.1 °F 83% 29.91 in 10.0 mi ESE 9.2 mph - 0.00 in   Mostly Cloudy
1:54 AM 39.9 °F 32.9 °F 34.0 °F 79% 29.88 in 10.0 mi ESE 11.5 mph - N/A   Mostly Cloudy
2:54 AM 41.0 °F 35.2 °F 35.1 °F 79% 29.83 in 10.0 mi ESE 9.2 mph - N/A   Overcast
3:54 AM 45.0 °F 38.5 °F 37.0 °F 74% 29.77 in 10.0 mi SE 13.8 mph 21.9 mph N/A   Overcast
4:00 AM 44.6 °F 38.1 °F 37.4 °F 76% 29.78 in 10.0 mi SE 13.8 mph 23.0 mph N/A Thunderstorm Thunderstorm
4:54 AM 43.0 °F 38.8 °F 39.9 °F 89% 29.80 in 4.0 mi ESE 6.9 mph - 0.10 in Rain , Thunderstorm Heavy Thunderstorms and Rain
5:45 AM 44.6 °F 40.2 °F 41.0 °F 87% 29.73 in 10.0 mi SSE 8.1 mph 19.6 mph 0.06 in Rain Light Rain
5:54 AM 44.6 °F 40.2 °F 41.0 °F 87% 29.73 in 10.0 mi SE 8.1 mph - N/A   Overcast
6:54 AM 45.0 °F - 43.0 °F 93% 29.80 in 6.0 mi Calm Calm - 0.02 in Rain Light Rain
7:54 AM 46.0 °F 43.1 °F 43.0 °F 89% 29.78 in 5.0 mi NNE 5.8 mph - 0.01 in   Overcast
8:54 AM 46.9 °F - 43.0 °F 86% 29.76 in 7.0 mi ENE 9.2 mph - N/A   Overcast
9:13 AM 46.4 °F 41.5 °F 44.6 °F 93% 29.75 in 7.0 mi ENE 10.4 mph - N/A   Overcast
9:54 AM 48.9 °F - 44.1 °F 83% 29.76 in 7.0 mi ENE 5.8 mph - N/A   Overcast
10:23 AM 50.0 °F - 44.6 °F 82% 29.76 in 7.0 mi ENE 6.9 mph - N/A   Overcast
10:54 AM 51.1 °F - 45.0 °F 80% 29.78 in 7.0 mi NNE 5.8 mph - N/A   Overcast
11:54 AM 52.0 °F - 45.0 °F 77% 29.78 in 7.0 mi NE 9.2 mph - N/A   Overcast
12:35 PM 51.8 °F - 44.6 °F 76% 29.78 in 7.0 mi NE 5.8 mph - N/A   Overcast
12:54 PM 51.1 °F - 44.1 °F 77% 29.80 in 7.0 mi NNE 5.8 mph - N/A   Overcast
1:54 PM 51.1 °F - 43.0 °F 74% 29.81 in 6.0 mi North 9.2 mph - N/A   Haze
2:12 PM 51.8 °F - 44.6 °F 76% 29.80 in 6.0 mi North 9.2 mph - N/A   Haze
2:54 PM 51.1 °F - 43.0 °F 74% 29.82 in 6.0 mi North 9.2 mph - N/A   Haze
3:54 PM 50.0 °F - 42.1 °F 74% 29.83 in 6.0 mi North 8.1 mph - N/A   Haze
4:31 PM 48.2 °F - 41.0 °F 76% 29.83 in 6.0 mi North 10.4 mph - N/A   Haze
4:54 PM 48.9 °F - 41.0 °F 74% 29.86 in 7.0 mi North 10.4 mph - N/A   Overcast
5:30 PM 46.4 °F 41.9 °F 41.0 °F 81% 29.85 in 7.0 mi North 9.2 mph - N/A   Overcast
5:54 PM 46.9 °F - 39.9 °F 77% 29.87 in 7.0 mi NNE 10.4 mph - N/A   Overcast
6:54 PM 45.0 °F 39.3 °F 39.0 °F 80% 29.89 in 6.0 mi NNE 11.5 mph - N/A   Haze
7:54 PM 44.1 °F 39.0 °F 37.9 °F 79% 29.90 in 7.0 mi NNE 9.2 mph - N/A   Overcast
8:54 PM 43.0 °F 36.8 °F 37.0 °F 80% 29.91 in 8.0 mi NNE 11.5 mph - N/A   Overcast
9:44 PM 42.8 °F 37.5 °F 37.4 °F 81% 29.91 in 6.0 mi ENE 9.2 mph - N/A   Haze
9:54 PM 42.1 °F 36.6 °F 37.0 °F 82% 29.93 in 6.0 mi ENE 9.2 mph - N/A   Haze
10:37 PM 42.8 °F 38.6 °F 35.6 °F 76% 29.94 in 7.0 mi ENE 6.9 mph - N/A   Overcast
10:54 PM 42.1 °F 36.1 °F 36.0 °F 79% 29.96 in 7.0 mi NE 10.4 mph - N/A   Overcast
11:54 PM 41.0 °F 34.7 °F 36.0 °F 82% 29.98 in 6.0 mi ENE 10.4 mph - N/A   Haze